CFG3705 MDLR-EDDF

Flight info

Callsign CFG3705
Flight time N/A
Altitude 35000
Route CHUMA2K CHUMA Y315 DOZGO DCT JANMA L455 KINCH/M081F350 L455 MCOOP DCT BRKZZ DCT 32N060W 40N050W 45N040W 46N030W 47N020W 47N015W DCT ETIKI DCT REGHI/N0468F350 DCT OZNOH DCT BULOX DCT TABOV DCT TSU DCT OQQAL DCT RANUX DCT VALEK DCT LUTAX DCT DIK T856 NIVNU T847 IMCOM IMCOM1A
Aircraft A339/H-SADE1E2E3GHIJ3J5M1P2RWXY/LB2D1

Departure

Time 2026-04-12 21:55
Airport Casa De Campo International Airport (MDLR)

Arrival

Time N/A
Airport Frankfurt Main Airport (EDDF)
Time Latitude Longitude Altitude Speed Heading
2026-04-12 21:45 18.44916 -68.91076 226 ft 0 kts 187°
2026-04-12 21:47 18.44927 -68.91075 226 ft 5 kts 187°
2026-04-12 21:47 18.44962 -68.91079 229 ft 5 kts 176°
2026-04-12 21:47 18.44985 -68.91078 230 ft 4 kts 261°
2026-04-12 21:47 18.44985 -68.91103 230 ft 2 kts 276°
2026-04-12 21:48 18.44981 -68.91073 230 ft 2 kts 278°
2026-04-12 21:50 18.44982 -68.91082 230 ft 4 kts 278°
2026-04-12 21:50 18.44987 -68.91124 227 ft 7 kts 277°
2026-04-12 21:51 18.45025 -68.91154 227 ft 9 kts 343°
2026-04-12 21:51 18.45111 -68.91152 227 ft 15 kts
2026-04-12 21:51 18.45216 -68.91142 229 ft 15 kts 358°
2026-04-12 21:51 18.45262 -68.91202 229 ft 12 kts 282°
2026-04-12 21:52 18.45276 -68.91340 228 ft 22 kts 276°
2026-04-12 21:52 18.45291 -68.91497 226 ft 21 kts 276°
2026-04-12 21:52 18.45309 -68.91646 229 ft 20 kts 277°
2026-04-12 21:52 18.45329 -68.91819 227 ft 27 kts 277°
2026-04-12 21:53 18.45352 -68.92013 228 ft 26 kts 277°
2026-04-12 21:53 18.45374 -68.92193 228 ft 25 kts 277°
2026-04-12 21:53 18.45395 -68.92369 226 ft 21 kts 276°
2026-04-12 21:53 18.45369 -68.92466 228 ft 8 kts 249°
2026-04-12 21:54 18.45385 -68.92500 232 ft 3 kts 334°
2026-04-12 21:54 18.45400 -68.92488 231 ft 3 kts 40°
2026-04-12 21:54 18.45401 -68.92430 228 ft 15 kts 95°
2026-04-12 21:54 18.45357 -68.92059 228 ft 89 kts 97°
2026-04-12 21:55 18.45252 -68.91168 229 ft 152 kts 97°
2026-04-12 21:55 18.45108 -68.89971 626 ft 168 kts 98°
2026-04-12 21:55 18.44953 -68.88742 1279 ft 175 kts 94°
2026-04-12 21:55 18.44784 -68.87435 1866 ft 182 kts 94°
2026-04-12 21:56 18.44611 -68.86064 2332 ft 197 kts 94°
2026-04-12 21:56 18.44721 -68.84601 2721 ft 205 kts 67°
2026-04-12 21:56 18.45542 -68.83346 3109 ft 218 kts 39°
2026-04-12 21:56 18.46931 -68.82626 3324 ft 237 kts 14°
2026-04-12 21:57 18.48647 -68.82427 3483 ft 258 kts
2026-04-12 21:57 18.50436 -68.82116 3906 ft 262 kts 20°
2026-04-12 21:57 18.52093 -68.81332 4460 ft 264 kts 28°
2026-04-12 21:57 18.53719 -68.80398 5011 ft 267 kts 29°
2026-04-12 21:58 18.55454 -68.79677 5486 ft 272 kts 10°
2026-04-12 21:58 18.57351 -68.79627 6043 ft 275 kts 359°
2026-04-12 21:58 18.59265 -68.79670 6546 ft 279 kts 359°
2026-04-12 21:58 18.61210 -68.79708 7084 ft 280 kts 359°
2026-04-12 21:59 18.63182 -68.79738 7585 ft 283 kts 359°
2026-04-12 21:59 18.65160 -68.79760 8097 ft 286 kts 359°
2026-04-12 21:59 18.67155 -68.79579 8535 ft 290 kts 16°
2026-04-12 21:59 18.69000 -68.78703 9061 ft 292 kts 27°
2026-04-12 22:00 18.70781 -68.77685 9542 ft 296 kts 28°
2026-04-12 22:00 18.72607 -68.76623 10030 ft 299 kts 28°
2026-04-12 22:00 18.74456 -68.75541 10292 ft 311 kts 28°
2026-04-12 22:00 18.76383 -68.74412 10436 ft 327 kts 28°
2026-04-12 22:01 18.78421 -68.73221 10568 ft 342 kts 28°
2026-04-12 22:01 18.80529 -68.71962 10823 ft 351 kts 30°
2026-04-12 22:01 18.82660 -68.70662 11293 ft 353 kts 29°
2026-04-12 22:01 18.84796 -68.69355 11717 ft 357 kts 29°
2026-04-12 22:02 18.86923 -68.68050 12197 ft 358 kts 29°
2026-04-12 22:02 18.89094 -68.66712 12633 ft 361 kts 29°
2026-04-12 22:02 18.91285 -68.65357 13077 ft 365 kts 29°
2026-04-12 22:02 18.93415 -68.63946 13519 ft 368 kts 36°
2026-04-12 22:03 18.95417 -68.62186 13923 ft 371 kts 38°
2026-04-12 22:03 18.97369 -68.60434 14332 ft 373 kts 39°
2026-04-12 22:03 18.99351 -68.58647 14748 ft 375 kts 39°
2026-04-12 22:03 19.01368 -68.56875 15166 ft 377 kts 38°
2026-04-12 22:04 19.03353 -68.55168 15551 ft 379 kts 37°
2026-04-12 22:04 19.05415 -68.53418 15963 ft 381 kts 37°
2026-04-12 22:04 19.07491 -68.51666 16376 ft 383 kts 37°
2026-04-12 22:04 19.09576 -68.49909 16766 ft 385 kts 37°
2026-04-12 22:05 19.11657 -68.48156 17147 ft 388 kts 37°
2026-04-12 22:05 19.13770 -68.46374 17541 ft 390 kts 37°
2026-04-12 22:05 19.15904 -68.44574 17950 ft 392 kts 37°
2026-04-12 22:05 19.18053 -68.42759 18324 ft 394 kts 37°
2026-04-12 22:06 19.20180 -68.40962 18651 ft 397 kts 37°
2026-04-12 22:06 19.22269 -68.39035 18975 ft 400 kts 42°
2026-04-12 22:06 19.24222 -68.36918 19315 ft 403 kts 46°
2026-04-12 22:06 19.26096 -68.34673 19644 ft 407 kts 47°
2026-04-12 22:07 19.27990 -68.32424 19967 ft 409 kts 46°
2026-04-12 22:07 19.29896 -68.30174 20309 ft 412 kts 46°
2026-04-12 22:07 19.31797 -68.27933 20640 ft 415 kts 46°
2026-04-12 22:07 19.33735 -68.25646 20962 ft 418 kts 46°
2026-04-12 22:08 19.35685 -68.23343 21309 ft 420 kts 46°
2026-04-12 22:08 19.37641 -68.21030 21661 ft 423 kts 46°
2026-04-12 22:08 19.39596 -68.18718 21982 ft 426 kts 46°
2026-04-12 22:08 19.41579 -68.16371 22338 ft 429 kts 46°
2026-04-12 22:09 19.43578 -68.14004 22688 ft 431 kts 46°
2026-04-12 22:09 19.45591 -68.11620 23035 ft 434 kts 46°
2026-04-12 22:09 19.47617 -68.09221 23370 ft 437 kts 46°
2026-04-12 22:09 19.49627 -68.06838 23693 ft 440 kts 46°
2026-04-12 22:10 19.51677 -68.04407 23989 ft 443 kts 46°
2026-04-12 22:10 19.53751 -68.01947 24290 ft 445 kts 46°
2026-04-12 22:10 19.55799 -67.99516 24576 ft 448 kts 46°
2026-04-12 22:10 19.57889 -67.97035 24866 ft 451 kts 46°
2026-04-12 22:11 19.59983 -67.94548 25149 ft 454 kts 46°
2026-04-12 22:11 19.62096 -67.92036 25455 ft 457 kts 46°
2026-04-12 22:11 19.64229 -67.89501 25730 ft 460 kts 46°
2026-04-12 22:11 19.66338 -67.86993 26013 ft 462 kts 46°
2026-04-12 22:12 19.68495 -67.84426 26309 ft 465 kts 46°
2026-04-12 22:12 19.70656 -67.81854 26580 ft 468 kts 46°
2026-04-12 22:12 19.72832 -67.79262 26871 ft 470 kts 46°
2026-04-12 22:12 19.74995 -67.76685 27144 ft 473 kts 46°
2026-04-12 22:13 19.77203 -67.74054 27416 ft 476 kts 46°
2026-04-12 22:13 19.79420 -67.71409 27700 ft 478 kts 46°
2026-04-12 22:13 19.81610 -67.68797 27972 ft 481 kts 46°
2026-04-12 22:13 19.83844 -67.66130 28233 ft 484 kts 46°
2026-04-12 22:14 19.86088 -67.63450 28505 ft 486 kts 46°
2026-04-12 22:14 19.88342 -67.60757 28789 ft 489 kts 46°
2026-04-12 22:14 19.90614 -67.58041 29064 ft 491 kts 46°
2026-04-12 22:14 19.92873 -67.55340 29321 ft 494 kts 46°
2026-04-12 22:15 19.95167 -67.52596 29574 ft 497 kts 46°
2026-04-12 22:15 19.97470 -67.49850 29855 ft 498 kts 44°
2026-04-12 22:15 20.00002 -67.47318 30097 ft 498 kts 36°
2026-04-12 22:15 20.02790 -67.45207 30339 ft 496 kts 27°
2026-04-12 22:16 20.05817 -67.43478 30599 ft 493 kts 21°
2026-04-12 22:16 20.08907 -67.41863 30842 ft 496 kts 21°
2026-04-12 22:16 20.12015 -67.40213 31110 ft 498 kts 22°
2026-04-12 22:16 20.15119 -67.38555 31362 ft 500 kts 21°
2026-04-12 22:17 20.18238 -67.36886 31599 ft 502 kts 21°
2026-04-12 22:17 20.21331 -67.35230 31857 ft 504 kts 21°
2026-04-12 22:17 20.24466 -67.33552 32096 ft 505 kts 21°
2026-04-12 22:17 20.27620 -67.31863 32331 ft 508 kts 21°
2026-04-12 22:18 20.30779 -67.30172 32542 ft 509 kts 21°
2026-04-12 22:18 20.33957 -67.28470 32752 ft 511 kts 21°
2026-04-12 22:18 20.37150 -67.26758 32931 ft 513 kts 21°
2026-04-12 22:18 20.40346 -67.25044 33085 ft 514 kts 21°
2026-04-12 22:19 20.43509 -67.23346 33238 ft 516 kts 21°
2026-04-12 22:19 20.46726 -67.21619 33378 ft 517 kts 21°
2026-04-12 22:19 20.49962 -67.19918 33507 ft 515 kts 17°
2026-04-12 22:19 20.53322 -67.18717 33632 ft 505 kts
2026-04-12 22:20 20.56726 -67.18205 33788 ft 493 kts 355°
2026-04-12 22:20 20.60115 -67.18371 33961 ft 481 kts 345°
2026-04-12 22:20 20.63436 -67.18925 34140 ft 479 kts 343°
2026-04-12 22:20 20.66697 -67.19508 34299 ft 478 kts 343°
2026-04-12 22:21 20.70000 -67.20070 34466 ft 478 kts 343°
2026-04-12 22:21 20.73292 -67.20594 34620 ft 478 kts 344°
2026-04-12 22:21 20.76549 -67.21091 34772 ft 477 kts 344°
2026-04-12 22:21 20.79842 -67.21582 34913 ft 477 kts 344°
2026-04-12 22:22 20.83140 -67.22071 35061 ft 477 kts 344°
2026-04-12 22:22 20.86430 -67.22558 35062 ft 476 kts 344°
2026-04-12 22:22 20.92950 -67.23526 35062 ft 475 kts 344°
2026-04-12 22:23 20.99521 -67.24504 35067 ft 475 kts 344°
2026-04-12 22:23 21.06082 -67.25481 35065 ft 476 kts 344°
2026-04-12 22:24 21.12609 -67.26454 35067 ft 476 kts 344°
2026-04-12 22:24 21.19173 -67.27433 35060 ft 476 kts 344°
2026-04-12 22:25 21.25756 -67.28415 35068 ft 476 kts 344°
2026-04-12 22:25 21.32282 -67.29390 35071 ft 476 kts 344°
2026-04-12 22:26 21.38866 -67.30375 35074 ft 476 kts 344°
2026-04-12 22:26 21.45411 -67.31355 35075 ft 477 kts 344°
2026-04-12 22:27 21.52004 -67.32342 35079 ft 477 kts 344°
2026-04-12 22:27 21.58548 -67.33324 35076 ft 477 kts 344°